Location: Niagara
(43.2500°N, 79.0670°W)
Time: 01:30:47
(UTC-04:00)

Hubble Space Telescope - Pass Details

Date: 07 October 2017
Orbit: 537 x 541 km, 28.5° (Epoch: 18 October)

Event Time Altitude Azimuth Distance (km) Brightness Sun altitude
Exits shadow 05:36:41 10° 183° (S) 1,783 3.3 -19.7°
Maximum altitude 05:36:43 10° 183° (S) 1,783 3.3 -19.7°
Drops below altitude 10° 05:37:02 10° 178° (S) 1,787 3.3 -19.6°
Sets 05:41:38 0° 132° (SE) 2,678 4.9 -18.8°
